| time (UTC) | temp F | wind direction | speed MPH | gust MPH | rain 1hr in | rain 24hr in | rain mn in | humidity % | barometer mb |
| 20260510093703 | 61 | 3 | 0.0 | 3.0 | 0.00 | 0.22 | 0.10 | 81 | 1014.6 |
| 20260510093203 | 61 | 3 | 1.0 | 2.0 | 0.00 | 0.22 | 0.10 | 80 | 1014.7 |
| 20260510090703 | 62 | 3 | 1.0 | 3.0 | 0.00 | 0.22 | 0.10 | 79 | 1014.8 |
| 20260510090203 | 62 | 3 | 2.0 | 10.0 | 0.00 | 0.22 | 0.10 | 79 | 1014.7 |
| 20260510083703 | 62 | 346 | 3.0 | 8.0 | 0.00 | 0.22 | 0.10 | 79 | 1014.3 |
| 20260510083204 | 62 | 2 | 4.0 | 10.0 | 0.00 | 0.22 | 0.10 | 79 | 1014.1 |
| 20260510080704 | 63 | 221 | 1.0 | 3.0 | 0.00 | 0.22 | 0.10 | 78 | 1013.0 |
| 20260510080203 | 63 | 224 | 2.0 | 7.0 | 0.00 | 0.22 | 0.10 | 77 | 1013.1 |
| 20260510073704 | 63 | 139 | 2.0 | 7.0 | 0.00 | 0.22 | 0.10 | 76 | 1012.5 |
| 20260510073204 | 63 | 150 | 5.0 | 13.0 | 0.00 | 0.22 | 0.10 | 76 | 1012.4 |
| 20260510070703 | 63 | 148 | 6.0 | 10.0 | 0.00 | 0.22 | 0.10 | 78 | 1012.2 |
| 20260510070203 | 62 | 155 | 5.0 | 14.0 | 0.00 | 0.22 | 0.10 | 79 | 1012.3 |
| 20260510063704 | 62 | 147 | 7.0 | 14.0 | 0.02 | 0.22 | 0.10 | 81 | 1012.4 |
| 20260510063203 | 61 | 157 | 7.0 | 17.0 | 0.03 | 0.22 | 0.10 | 83 | 1012.4 |
| 20260510060703 | 61 | 133 | 3.0 | 9.0 | 0.09 | 0.22 | 0.10 | 87 | 1014.3 |
| 20260510060204 | 62 | 126 | 4.0 | 7.0 | 0.10 | 0.22 | 0.10 | 87 | 1014.6 |
| 20260510053703 | 62 | 154 | 0.0 | 2.0 | 0.03 | 0.20 | 0.08 | 85 | 1017.1 |
| 20260510053203 | 62 | 154 | 1.0 | 3.0 | 0.04 | 0.19 | 0.07 | 84 | 1016.2 |
| 20260510050705 | 63 | 235 | 0.0 | 5.0 | 0.00 | 0.13 | 0.01 | 81 | 1018.0 |
| 20260510043703 | 68 | 299 | 2.0 | 8.0 | 0.04 | 0.05 | 0.05 | 71 | 1018.2 |
| 20260510043203 | 69 | 288 | 1.0 | 10.0 | 0.02 | 0.03 | 0.03 | 67 | 1017.3 |
| 20260510040704 | 72 | 356 | 5.0 | 8.0 | 0.00 | 0.01 | 0.01 | 56 | 1015.6 |
| 20260510040204 | 73 | 333 | 1.0 | 5.0 | 0.00 | 0.01 | 0.01 | 53 | 1014.3 |
| 20260510033204 | 73 | 97 | 1.0 | 7.0 | 0.00 | 0.01 | 0.01 | 49 | 1013.2 |
| 20260510030703 | 73 | 107 | 3.0 | 7.0 | 0.00 | 0.01 | 0.01 | 50 | 1012.7 |
| 20260510023203 | 74 | 109 | 3.0 | 8.0 | 0.00 | 0.01 | 0.01 | 47 | 1012.2 |
| 20260510020704 | 75 | 78 | 2.0 | 6.0 | 0.00 | 0.01 | 0.01 | 45 | 1011.7 |
| 20260510020204 | 75 | 101 | 2.0 | 7.0 | 0.00 | 0.01 | 0.01 | 44 | 1011.2 |
| 20260510013703 | 76 | 95 | 4.0 | 8.0 | 0.00 | 0.01 | 0.01 | 41 | 1010.4 |
| 20260510013203 | 77 | 93 | 3.0 | 7.0 | 0.00 | 0.01 | 0.01 | 41 | 1010.3 |
| 20260510003704 | 81 | 151 | 4.0 | 7.0 | 0.00 | 0.01 | 0.01 | 35 | 1010.0 |
| 20260510003203 | 81 | 126 | 4.0 | 12.0 | 0.00 | 0.01 | 0.01 | 35 | 1010.1 |
| 20260510000703 | 82 | 147 | 6.0 | 12.0 | 0.00 | 0.01 | 0.01 | 33 | 1010.0 |
| 20260510000204 | 83 | 148 | 7.0 | 13.0 | 0.00 | 0.01 | 0.01 | 34 | 1010.0 |
| 20260509233703 | 84 | 161 | 6.0 | 15.0 | 0.00 | 0.01 | 0.01 | 33 | 1010.1 |
| 20260509233204 | 84 | 125 | 6.0 | 14.0 | 0.00 | 0.01 | 0.01 | 32 | 1010.0 |
| 20260509230704 | 84 | 136 | 9.0 | 14.0 | 0.00 | 0.01 | 0.01 | 32 | 1010.1 |
| 20260509223704 | 85 | 137 | 9.0 | 13.0 | 0.00 | 0.01 | 0.01 | 33 | 1010.3 |
| 20260509220704 | 85 | 159 | 6.0 | 12.0 | 0.00 | 0.01 | 0.01 | 33 | 1010.4 |
| 20260509220204 | 85 | 145 | 4.0 | 12.0 | 0.00 | 0.01 | 0.01 | 33 | 1010.4 |
| 20260509213703 | 85 | 117 | 5.0 | 8.0 | 0.00 | 0.01 | 0.01 | 31 | 1010.6 |
| 20260509213204 | 85 | 130 | 3.0 | 12.0 | 0.00 | 0.01 | 0.01 | 31 | 1010.6 |
| 20260509210703 | 85 | 143 | 3.0 | 7.0 | 0.00 | 0.01 | 0.01 | 31 | 1010.9 |
| 20260509210204 | 85 | 149 | 6.0 | 13.0 | 0.00 | 0.01 | 0.01 | 31 | 1011.0 |
| 20260509203703 | 85 | 137 | 7.0 | 13.0 | 0.00 | 0.01 | 0.01 | 32 | 1011.3 |
| 20260509203204 | 85 | 109 | 3.0 | 12.0 | 0.00 | 0.01 | 0.01 | 31 | 1011.3 |
| 20260509200704 | 85 | 116 | 3.0 | 10.0 | 0.00 | 0.01 | 0.01 | 32 | 1011.6 |
| 20260509193704 | 84 | 126 | 5.0 | 9.0 | 0.00 | 0.01 | 0.01 | 30 | 1012.1 |
| 20260509193203 | 84 | 141 | 2.0 | 12.0 | 0.00 | 0.01 | 0.01 | 34 | 1012.2 |
| 20260509190704 | 84 | 168 | 3.0 | 8.0 | 0.00 | 0.01 | 0.01 | 34 | 1012.2 |
| 20260509190203 | 84 | 156 | 4.0 | 12.0 | 0.00 | 0.01 | 0.01 | 35 | 1012.2 |
| 20260509183704 | 82 | 145 | 1.0 | 8.0 | 0.00 | 0.01 | 0.01 | 37 | 1012.5 |
| 20260509183203 | 83 | 160 | 2.0 | 10.0 | 0.00 | 0.01 | 0.01 | 38 | 1012.7 |
| 20260509180203 | 82 | 161 | 5.0 | 12.0 | 0.00 | 0.01 | 0.01 | 42 | 1013.3 |
| 20260509173703 | 81 | 155 | 3.0 | 12.0 | 0.00 | 0.01 | 0.01 | 46 | 1013.3 |
| 20260509173203 | 81 | 136 | 5.0 | 12.0 | 0.00 | 0.01 | 0.01 | 42 | 1013.4 |
| 20260509170704 | 79 | 170 | 2.0 | 8.0 | 0.00 | 0.01 | 0.01 | 41 | 1013.6 |
| 20260509170203 | 80 | 134 | 4.0 | 10.0 | 0.00 | 0.01 | 0.01 | 36 | 1013.6 |
| 20260509163703 | 81 | 197 | 3.0 | 9.0 | 0.00 | 0.01 | 0.01 | 45 | 1014.0 |
| 20260509163204 | 81 | 125 | 4.0 | 8.0 | 0.00 | 0.01 | 0.01 | 43 | 1014.0 |
| 20260509160703 | 79 | 143 | 4.0 | 6.0 | 0.00 | 0.01 | 0.01 | 51 | 1014.0 |
| 20260509160204 | 78 | 160 | 1.0 | 6.0 | 0.00 | 0.01 | 0.01 | 54 | 1013.9 |
| 20260509153704 | 76 | 143 | 3.0 | 7.0 | 0.00 | 0.01 | 0.01 | 55 | 1013.5 |
| 20260509153204 | 76 | 170 | 2.0 | 6.0 | 0.00 | 0.01 | 0.01 | 55 | 1013.5 |
| 20260509150703 | 74 | 156 | 3.0 | 5.0 | 0.00 | 0.01 | 0.01 | 66 | 1013.4 |
| 20260509150204 | 74 | 150 | 2.0 | 3.0 | 0.00 | 0.01 | 0.01 | 66 | 1013.5 |
| 20260509143703 | 70 | 110 | 0.0 | 2.0 | 0.00 | 0.01 | 0.01 | 75 | 1013.5 |
| 20260509140704 | 65 | 111 | 1.0 | 2.0 | 0.00 | 0.01 | 0.01 | 89 | 1013.5 |
| 20260509140203 | 64 | 109 | 1.0 | 2.0 | 0.00 | 0.01 | 0.01 | 90 | 1013.4 |
| 20260509133203 | 61 | 108 | 1.0 | 2.0 | 0.00 | 0.01 | 0.01 | 92 | 1013.4 |
| 20260509130704 | 58 | 108 | 1.0 | 2.0 | 0.00 | 0.01 | 0.01 | 92 | 1013.4 |
| 20260509130204 | 58 | 108 | 0.0 | 3.0 | 0.00 | 0.01 | 0.01 | 92 | 1013.3 |
| 20260509123704 | 54 | 111 | 1.0 | 2.0 | 0.00 | 0.01 | 0.01 | 92 | 1012.9 |
| 20260509120704 | 52 | 113 | 0.0 | 0.0 | 0.01 | 0.01 | 0.01 | 91 | 1012.6 |
| 20260509120204 | 52 | 113 | 0.0 | 0.0 | 0.01 | 0.01 | 0.01 | 90 | 1012.6 |
| 20260509113703 | 52 | 113 | 0.0 | 0.0 | 0.01 | 0.01 | 0.01 | 90 | 1012.5 |
| 20260509113203 | 52 | 113 | 0.0 | 1.0 | 0.01 | 0.01 | 0.01 | 90 | 1012.3 |
| 20260509110704 | 53 | 113 | 0.0 | 0.0 | 0.00 | 0.00 | 0.00 | 90 | 1012.2 |
| 20260509110203 | 53 | 113 | 0.0 | 0.0 | 0.00 | 0.00 | 0.00 | 90 | 1012.1 |
| 20260509103703 | 53 | 114 | 0.0 | 0.0 | 0.00 | 0.00 | 0.00 | 90 | 1012.3 |
| 20260509100703 | 55 | 116 | 0.0 | 0.0 | 0.00 | 0.00 | 0.00 | 90 | 1012.4 |